DW8131 Weather Reports


time (UTC)temp
F
wind
direction
speed
knots
gust
knots
rain 1hr
in
rain 24hr
in
rain mn
in
humidity
%
barometer
mb
20260507083041 66 276 4.3 0.0 0.00 0.00 0.00 43 1015.8
20260507081542 66 251 4.3 0.0 0.00 0.00 0.00 39 1015.7
20260507080038 65 292 4.3 0.0 0.00 0.00 0.00 40 1015.6
20260507074535 65 302 4.3 0.0 0.00 0.00 0.00 44 1015.5
20260507073033 64 286 2.6 0.0 0.00 0.00 0.00 44 1015.3
20260507071529 63 349 1.7 0.0 0.00 0.00 0.00 47 1015.2
20260507070038 61 305 2.6 0.0 0.00 0.00 0.00 50 1015.3
20260507064520 59 316 1.7 0.0 0.00 0.00 0.00 55 1015.1
20260507063017 57 238 0.9 0.0 0.00 0.00 0.00 58 1014.9
20260507061513 52 15 0.9 0.0 0.00 0.00 0.00 68 1014.9
20260507060015 48 31 0.9 0.0 0.00 0.00 0.00 71 1014.9
20260507054504 46 40 0.9 0.0 0.00 0.00 0.00 73 1014.8
20260507053126 44 61 0.9 0.0 0.00 0.00 0.00 74 1014.7
20260507051559 43 38 1.7 0.0 0.00 0.00 0.00 77 1014.5
20260507050057 41 44 1.7 0.0 0.00 0.00 0.00 79 1014.4
20260507044617 41 38 2.6 0.0 0.00 0.00 0.00 76 1014.2
20260507043055 0 0.0 0.0 0.00 0.00 0.00 1014.1
20260507041551 0 0.0 0.0 0.00 0.00 0.00 1014.1
20260507040047 0 0.0 0.0 0.00 0.00 0.00 1014.1
20260507034544 0 0.0 0.0 0.00 0.00 0.00 1013.8
20260507033047 0 0.0 0.0 0.00 0.00 0.00 1013.9
20260507031545 0 0.0 0.0 0.00 0.00 0.00 1013.9
20260507030025 0 0.0 0.0 0.00 0.00 0.00 1013.9
20260507024524 0 0.0 0.0 0.00 0.00 0.00 1013.9
20260507023017 0 0.0 0.0 0.00 0.00 0.00 1013.6
20260507021515 39 22 2.6 0.0 0.00 0.00 0.00 83 1013.6
20260507020013 39 30 1.7 0.0 0.00 0.00 0.00 82 1013.5
20260507014510 40 29 1.7 0.0 0.00 0.00 0.00 82 1013.5
20260507013008 40 28 2.6 0.0 0.00 0.00 0.00 83 1013.4
20260507011518 40 30 1.7 0.0 0.00 0.00 0.00 83 1013.3
20260507010004 40 31 1.7 0.0 0.00 0.00 0.00 83 1013.2
20260507004501 41 34 1.7 0.0 0.00 0.00 0.00 81 1013.0
20260507003108 42 28 0.0 0.0 0.00 0.00 0.00 80 1013.1
20260507001559 43 24 1.7 0.0 0.00 0.00 0.00 78 1013.0
20260507000052 43 16 2.6 0.0 0.00 0.00 0.00 78 1012.9
20260506234600 44 19 2.6 0.0 0.00 0.00 0.00 78 1012.7
20260506233052 44 349 3.5 0.0 0.00 0.00 0.00 78 1012.8
20260506231553 43 325 2.6 0.0 0.00 0.00 0.00 76 1012.8
20260506230042 43 318 2.6 0.0 0.00 0.00 0.00 74 1012.6
20260506224542 44 329 2.6 0.0 0.00 0.00 0.00 73 1012.5
20260506223042 44 337 2.6 0.0 0.00 0.00 0.00 72 1012.4
20260506221541 45 5 1.7 0.0 0.00 0.00 0.00 70 1012.5
20260506220039 45 15 2.6 0.0 0.00 0.00 0.00 68 1012.2
20260506214538 45 355 3.5 0.0 0.00 0.00 0.00 67 1012.2
20260506213040 45 326 2.6 0.0 0.00 0.00 0.00 68 1012.0
20260506211538 45 325 3.5 0.0 0.00 0.00 0.00 71 1012.0
20260506210037 46 317 3.5 0.0 0.00 0.00 0.00 73 1011.9
20260506204540 46 338 2.6 0.0 0.00 0.00 0.00 73 1011.8
20260506203040 46 338 2.6 0.0 0.00 0.00 0.00 72 1011.7
20260506201539 47 327 3.5 0.0 0.00 0.00 0.00 69 1011.7
20260506200039 47 333 3.5 0.0 0.00 0.00 0.00 68 1011.6
20260506194534 48 320 3.5 0.0 0.00 0.00 0.00 66 1011.6
20260506193033 49 5 3.5 0.0 0.00 0.00 0.00 65 1011.5
20260506191533 49 338 3.5 0.0 0.00 0.00 0.00 63 1011.4
20260506190038 50 360 3.5 0.0 0.00 0.00 0.00 61 1011.3
20260506184540 50 355 4.3 0.0 0.00 0.00 0.00 59 1011.1
20260506183031 51 333 4.3 0.0 0.00 0.00 0.00 56 1010.9
20260506181533 52 319 5.2 0.0 0.00 0.00 0.00 53 1010.8
20260506180031 52 328 4.3 0.0 0.00 0.00 0.00 54 1010.7
20260506174530 53 348 5.2 0.0 0.00 0.00 0.00 51 1010.6
20260506173035 53 323 6.1 0.0 0.00 0.00 0.00 49 1010.6
20260506171530 53 319 5.2 0.0 0.00 0.00 0.00 50 1010.6
20260506170031 54 310 6.1 0.0 0.00 0.00 0.00 49 1010.6
20260506164528 54 274 7.0 0.0 0.00 0.00 0.00 49 1010.4
20260506163031 54 324 7.0 0.0 0.00 0.00 0.00 47 1010.5
20260506161527 54 331 7.0 0.0 0.00 0.00 0.00 45 1010.5
20260506160028 54 316 7.0 0.0 0.00 0.00 0.00 45 1010.4
20260506154525 54 326 6.1 0.0 0.00 0.00 0.00 46 1010.5
20260506153024 54 314 7.8 0.0 0.00 0.00 0.00 45 1010.7
20260506151525 54 311 8.7 0.0 0.00 0.00 0.00 44 1010.6
20260506150022 55 348 9.6 0.0 0.00 0.00 0.00 42 1010.6
20260506144522 56 279 8.7 0.0 0.00 0.00 0.00 43 1010.5
20260506143025 56 312 7.8 0.0 0.00 0.00 0.00 44 1010.6
20260506141519 56 346 8.7 0.0 0.00 0.00 0.00 45 1010.8
20260506140018 57 316 8.7 0.0 0.00 0.00 0.00 45 1010.6
20260506134517 57 314 8.7 0.0 0.00 0.00 0.00 45 1010.8
20260506133018 58 312 9.6 0.0 0.00 0.00 0.00 42 1010.9
20260506131518 58 273 8.7 0.0 0.00 0.00 0.00 43 1010.9
20260506130014 59 301 9.6 0.0 0.00 0.00 0.00 42 1010.8
20260506124513 59 323 8.7 0.0 0.00 0.00 0.00 45 1010.8
20260506123012 60 260 8.7 0.0 0.00 0.00 0.00 43 1010.8
20260506121513 60 280 8.7 0.0 0.00 0.00 0.00 46 1010.9
20260506120015 61 306 8.7 0.0 0.00 0.00 0.00 45 1010.9
20260506114508 62 325 8.7 0.0 0.00 0.00 0.00 45 1011.0
20260506113008 63 290 8.7 0.0 0.00 0.00 0.00 41 1011.0
20260506111507 63 319 8.7 0.0 0.00 0.00 0.00 38 1011.0
20260506110005 65 300 7.0 0.0 0.00 0.00 0.00 40 1011.2
20260506104504 65 277 7.8 0.0 0.00 0.00 0.00 35 1011.2
20260506103004 65 279 7.8 0.0 0.00 0.00 0.00 37 1011.2
20260506101506 65 297 7.0 0.0 0.00 0.00 0.00 35 1011.2
20260506100001 66 294 7.0 0.0 0.00 0.00 0.00 37 1011.2
20260506094559 64 263 6.1 0.0 0.00 0.00 0.00 39 1011.2
20260506093055 62 233 7.0 0.0 0.00 0.00 0.00 37 1011.3
20260506091551 59 232 7.0 0.0 0.00 0.00 0.00 40 1011.3
20260506090047 56 214 7.0 0.0 0.00 0.00 0.00 40 1011.3
20260506084607 56 199 5.2 0.0 0.00 0.00 0.00 39 1011.3